This demonstration page uses our WeatherBlox Daily Observations layout. Learn more.

Left ArrowRight Arrow

39.12711, -84.51439

Hourly Observations for October 5, 2020

Temp ( °F °C ) Dew Point ( °F °C ) Humidity (%) Winds ( mph kmh ) Pressure ( in mb ) Visibility ( mi km ) Precip ( " mm )
12:53 am 00:53 Clear 48 8.9 42 5.6 80 80 NW 3 6 30.25 1024 10 16 0.00 0.00
1:53 am 01:53 Clear 43 6.1 41 5 93 93 Calm 30.25 1024 10 16 0.00 0.00
2:53 am 02:53 Clear 41 5 39 3.9 93 93 Calm 30.25 1025 9 14 0.00 0.00
3:13 am 03:13 Clear with Mist and Fog 41 5 39 3.9 93 93 Calm 30.27 1025 2 3 0.00 0.00
3:18 am 03:18 Clear with Mist and Fog 41 5 40 4.4 96 96 Calm 30.27 1025 3 5 0.00 0.00
3:32 am 03:32 Clear with Mist and Fog 40 4.4 38 3.3 93 93 Calm 30.27 1025 2 3 0.00 0.00
3:53 am 03:53 Mostly Clear with Mist and Fog 40 4.4 39 3.9 97 97 Calm 30.26 1025 2 3 0.00 0.00
3:57 am 03:57 Mostly Cloudy with Mist and Fog 39 3.9 38 3.3 96 96 Calm 30.28 1025 1 1 0.00 0.00
4:11 am 04:11 Mostly Clear with Mist and Fog 39 3.9 37 2.8 93 93 Calm 30.28 1025 3 5 0.00 0.00
4:18 am 04:18 Mostly Clear with Mist and Fog 39 3.9 38 3.3 96 96 Calm 30.28 1025 2 3 0.00 0.00
4:25 am 04:25 Mostly Clear with Mist and Fog 39 3.9 38 3.3 96 96 Calm 30.28 1025 2 3 0.00 0.00
4:37 am 04:37 Mostly Cloudy with Mist and Fog 38 3.3 38 3.3 100 100 Calm 30.28 1025 1 2 0.00 0.00
4:53 am 04:53 Mostly Cloudy with Mist and Fog 38 3.3 37 2.8 97 97 Calm 30.27 1025 1 1 0.00 0.00
5:06 am 05:06 Clear with Mist and Fog 38 3.3 37 2.8 97 97 Calm 30.29 1026 1 2 0.00 0.00
5:15 am 05:15 Partly Cloudy with Mist and Fog 39 3.9 37 2.8 93 93 Calm 30.30 1026 2 3 0.00 0.00
5:19 am 05:19 Partly Cloudy with Mist and Fog 38 3.3 38 3.3 100 100 Calm 30.30 1026 3 5 0.00 0.00
5:30 am 05:30 Mostly Cloudy with Mist and Fog 36 2.2 36 2.2 100 100 Calm 30.30 1026 1 2 0.00 0.00
5:38 am 05:38 Mostly Cloudy with Mist and Fog 37 2.8 36 2.2 96 96 Calm 30.31 1026 1 1 0.00 0.00
5:41 am 05:41 Partly Cloudy with Mist and Fog 37 2.8 36 2.2 96 96 Calm 30.31 1026 1 2 0.00 0.00
5:48 am 05:48 Mostly Cloudy with Mist and Fog 37 3 36 2 93 93 Calm 30.31 1026 1 1 0.00 0.00
5:53 am 05:53 Mostly Cloudy with Mist and Fog 37 2.8 36 2.2 96 96 Calm 30.29 1026 1 1 0.00 0.00
5:57 am 05:57 Mostly Clear with Mist and Fog 37 2.8 36 2.2 96 96 Calm 30.31 1026 1 2 0.00 0.00
6:04 am 06:04 Clear with Mist and Fog 38 3.3 37 2.8 97 97 NNE 5 7 30.31 1026 4 6 0.00 0.00
6:53 am 06:53 Clear with Mist and Fog 37 2.8 36 2.2 96 96 Calm 30.30 1026 6 10 0.00 0.00
7:53 am 07:53 Sunny with Mist and Fog 37 2.8 36 2.2 96 96 Calm 30.31 1026 6 10 0.00 0.00
8:53 am 08:53 Sunny 41 5 40 4.4 96 96 Calm 30.32 1027 10 16 0.00 0.00
9:53 am 09:53 Sunny 47 8.3 42 5.6 83 83 VRB 3 6 30.32 1027 10 16 0.00 0.00
10:53 am 10:53 Sunny 51 10.6 45 7.2 80 80 Calm 30.33 1027 10 16 0.00 0.00
11:53 am 11:53 Partly Cloudy 56 13.3 45 7.2 67 67 Calm 30.32 1027 10 16 0.00 0.00
12:53 pm 12:53 Partly Cloudy 59 15 45 7.2 60 60 VRB 3 6 30.30 1026 10 16 0.00 0.00
1:53 pm 13:53 Sunny 60 15.6 39 3.9 46 46 VRB 6 9 30.27 1025 10 16 0.00 0.00
2:53 pm 14:53 Mostly Sunny 61 16.1 38 3.3 43 43 ESE 3 6 30.24 1024 10 16 0.00 0.00
3:53 pm 15:53 Sunny 62 16.7 38 3.3 41 41 Calm 30.21 1023 10 16 0.00 0.00
4:53 pm 16:53 Sunny 63 17.2 38 3.3 40 40 Calm 30.19 1022 10 16 0.00 0.00
5:53 pm 17:53 Sunny 62 16.7 39 3.9 43 43 S 3 6 30.17 1022 10 16 0.00 0.00
6:53 pm 18:53 Sunny 58 14.4 43 6.1 58 58 SE 3 6 30.16 1022 10 16 0.00 0.00
7:53 pm 19:53 Clear 50 10 43 6.1 77 77 Calm 30.18 1022 10 16 0.00 0.00
8:53 pm 20:53 Clear 46 7.8 42 5.6 86 86 Calm 30.18 1022 10 16 0.00 0.00
9:53 pm 21:53 Clear 44 6.7 42 5.6 93 93 Calm 30.17 1022 10 16 0.00 0.00
10:53 pm 22:53 Clear 44 6.7 42 5.6 93 93 Calm 30.17 1022 10 16 0.00 0.00
11:53 pm 23:53 Clear with Mist and Fog 41 5 40 4.4 96 96 Calm 30.17 1022 3 5 0.00 0.00

Powered by AerisWeather